24h Messdaten per 22.04.2021 um 14:51:01

Datum Zeit Luftdruck Temp Balkon Feuchte Balkon Temp Strasse Feuchte Strasse Wind km/h Wind Boe Wind aus (Grad) Regen l/15min Sonne h/Monat
22.04.21 14:51:01 17.6 20
22.04.21 14:46:01 19.1 20
22.04.21 14:41:01 18.0 20
22.04.21 14:36:02 20.3 20
22.04.21 14:31:01 21.9 20
22.04.21 14:26:01 20.5 20
22.04.21 14:21:01 19.6 20
22.04.21 14:16:01 18.3 20
22.04.21 14:11:01 13.9 20
22.04.21 14:06:02 15.8 20
22.04.21 14:01:02 15.0 20
22.04.21 13:56:02 17.3 20
22.04.21 13:51:02 0.0
22.04.21 13:46:01 0.0
22.04.21 13:41:01 0.0
22.04.21 13:36:02 0.0
22.04.21 13:31:02 0.0
22.04.21 13:26:02 0.0
22.04.21 13:21:01 19.0 20 0.0
22.04.21 13:16:01 18.5 20 0.0
22.04.21 13:11:01 16.6 20 0.0
22.04.21 13:06:02 15.3 20 0.0
22.04.21 13:01:02 17.8 20 0.0
22.04.21 12:56:02 19.2 20 0.0
22.04.21 12:51:01 17.7 20 0.0
22.04.21 12:46:01 16.8 20 0.0
22.04.21 12:41:01 18.1 20 0.0
22.04.21 12:36:01 18.9 20 0.0
22.04.21 12:31:01 20.0 20 0.0
22.04.21 12:26:01 18.7 20 0.0
22.04.21 12:21:02 16.3 20 0.0
22.04.21 12:16:02 17.6 20 0.0
22.04.21 12:11:01 16.3 20 0.0
22.04.21 12:06:01 16.3 20 0.0
22.04.21 12:01:01 18.5 20 0.0
22.04.21 11:56:01 19.1 20 0.0
22.04.21 11:51:02 17.2 20 0.0
22.04.21 11:46:02 17.0 20 2.2 5.4 225 0.0
22.04.21 11:41:02 15.3 20 2.2 5.4 225 0.0
22.04.21 11:36:02 17.1 20 2.2 5.4 225 0.0
22.04.21 11:31:02 15.8 20 2.2 5.4 45 0.0
22.04.21 11:26:02 17.6 20 1.4 4.7 22.5 0.0
22.04.21 11:21:02 16.0 20 2.2 2.9 22.5 0.0
22.04.21 11:16:02 11.1 20 2.9 4.3 112.5 0.0
22.04.21 11:11:02 8.8 20 2.5 3.6 225 0.0
22.04.21 11:06:02 8.6 20 2.9 2.2 180 0.0
22.04.21 11:01:01 11.9 20 2.5 2.9 292.5 0.0
22.04.21 10:56:01 14.3 20 2.2 3.2 135 0.0
22.04.21 10:51:02 11.3 20 1.8 2.2 270 0.0
22.04.21 10:46:02 8.7 20 1.8 2.5 135 0.0
22.04.21 10:41:02 8.7 20 1.8 2.9 135 0.0
22.04.21 10:36:02 9.3 20 1.8 0.0 45 0.0
22.04.21 10:31:02 11.4 20 2.2 3.2 247.5 0.0
22.04.21 10:26:01 10.4 20 2.5 4.7 112.5 0.0
22.04.21 10:21:01 11.7 20 2.2 3.2 67.5 0.0
22.04.21 10:16:01 7.7 20 2.2 2.2 337.5 0.0
22.04.21 10:11:01 8.0 20 2.2 1.8 225 0.0
22.04.21 10:06:01 2.2 1.8 225 0.0
22.04.21 10:01:01 2.2 1.8 337.5 0.0
22.04.21 09:56:01 2.5 2.5 22.5 0.0
22.04.21 09:51:02 9.0 20 2.9 2.9 270 0.0
22.04.21 09:46:02 12.0 20 2.5 4.7 225 0.0
22.04.21 09:41:02 9.9 20 1.4 3.6 202.5 0.0
22.04.21 09:36:01 11.7 20 1.8 5.8 225 0.0
22.04.21 09:31:01 15.3 20 1.8 2.9 315 0.0
22.04.21 09:26:01 14.4 20 1.4 4.3 315 0.0
22.04.21 09:21:02 13.4 20 1.4 3.2 337.5 0.0
22.04.21 09:16:02 14.4 20 1.4 1.8 337.5 0.0
22.04.21 09:11:02 13.6 20 1.1 1.4 270 0.0
22.04.21 09:06:01 12.7 20 1.8 5.0 315 0.0
22.04.21 09:01:01 15.0 20 2.5 0.0 22.5 0.0
22.04.21 08:56:01 11.3 20 1.1 3.6 247.5 0.0
22.04.21 08:51:02 12.0 20 0.4 2.2 270 0.0
22.04.21 08:46:02 11.1 20 1.4 2.2 22.5 0.0
22.04.21 08:41:02 11.4 20 1.4 2.2 22.5 0.0
22.04.21 08:36:02 9.5 20 1.4 1.8 315 0.0
22.04.21 08:31:02 8.3 20 1.4 1.8 337.5 0.0
22.04.21 08:26:02 10.8 20 1.8 2.2 315 0.0
22.04.21 08:21:01 9.3 36 1.8 2.9 67.5 0.0
22.04.21 08:16:01 5.0 40 1.8 3.2 315 0.0
22.04.21 08:11:01 3.4 40 1.4 2.5 45 0.0
22.04.21 08:06:02 2.3 42 1.4 0.0 337.5 0.0
22.04.21 08:01:01 1.6 44 2.2 1.8 292.5 0.0
22.04.21 07:56:01 1.6 46 2.2 5.0 292.5 0.0
22.04.21 07:51:02 0.9 48 2.2 1.4 45 0.0
22.04.21 07:46:02 0.3 50 2.9 2.5 270 0.0
22.04.21 07:41:02 0.1 50 1.8 2.2 247.5 0.0
22.04.21 07:36:01 -0.3 52 0.7 3.2 270 0.0
22.04.21 07:31:01 -0.6 53 1.1 1.8 270 0.0
22.04.21 07:26:01 -0.9 54 1.1 0.0 247.5 0.0
22.04.21 07:21:02 -1.1 54 1.1 2.5 247.5 0.0
22.04.21 07:16:02 -1.2 55 0.7 1.4 45 0.0
22.04.21 07:11:02 -1.3 55 0.7 1.4 45 0.0
22.04.21 07:06:02 -1.3 55 0.4 2.9 247.5 0.0
22.04.21 07:01:02 -1.4 56 0.0 0.0 0 0.0
22.04.21 06:56:02 -1.6 56 0.0 0.0 202.5 0.0
22.04.21 06:51:02 -1.6 56 0.0 0.0 22.5 0.0
22.04.21 06:46:02 -1.6 56 0.0 0.0 270 0.0
22.04.21 06:41:02 -1.7 56 0.0 0.0 225 0.0
22.04.21 06:36:03 -1.7 55 0.0 0.0 292.5 0.0
22.04.21 06:31:03 -1.6 55 0.0 1.8 270 0.0
22.04.21 06:26:02 -1.6 55 0.0 0.0 67.5 0.0
22.04.21 06:21:02 -1.5 55 0.0 0.0 67.5 0.0
22.04.21 06:16:02 -1.5 55 0.0 0.0 22.5 0.0
22.04.21 06:11:02 -1.6 55 0.0 0.0 67.5 0.0
22.04.21 06:06:02 -1.6 55 0.0 0.0 112.5 0.0
22.04.21 06:01:02 -1.5 55 0.0 0.0 67.5 0.0
22.04.21 05:56:02 -1.6 55 0.0 0.0 112.5 0.0
22.04.21 05:50:02 -1.6 55 0.0 0.0 112.5 0.0
22.04.21 05:45:02 -1.6 54 0.7 0.0 112.5 0.0
22.04.21 05:40:02 -1.5 54 0.7 1.8 67.5 0.0
22.04.21 05:35:02 -1.4 53 0.7 0.0 67.5 0.0
22.04.21 05:30:01 -1.2 53 1.8 1.4 112.5 0.0
22.04.21 05:25:01 -1.1 53 1.8 1.4 112.5
22.04.21 05:20:02 -1.2 53 1.8 2.9 135 0.0
22.04.21 05:15:02 -1.1 53 2.2 3.2 135 0.0
22.04.21 05:10:02 -0.9 53 2.2 3.2 135 0.0
22.04.21 05:05:02 1.4 2.5 67.5 0.0
22.04.21 05:00:02 -1.0 53 1.8 2.2 157.5 0.0
22.04.21 04:55:02 -1.0 53 1.8 2.2 157.5 0.0
22.04.21 04:50:02 -0.9 53 1.4 2.9 90 0.0
22.04.21 04:45:02 -1.1 52 2.5 2.9 67.5 0.0
22.04.21 04:40:02 -0.8 52 2.5 2.9 67.5 0.0
22.04.21 04:35:01 -0.6 52 2.2 2.9 112.5 0.0
22.04.21 04:30:01 -0.5 53 1.8 2.9 112.5 0.0
22.04.21 04:25:01 -0.5 53 1.8 2.9 112.5
22.04.21 04:20:02 -0.6 53 1.4 1.8 135 0.0
22.04.21 04:15:02 -0.7 53 2.2 1.8 135 0.0
22.04.21 04:10:02 -0.9 52 2.2 1.8 135 0.0
22.04.21 04:05:02 1.4 2.9 135 0.0
22.04.21 04:00:02 -0.9 52 1.4 0.0 67.5 0.0
22.04.21 03:55:02 -1.4 51 1.4 0.0 67.5 0.0
22.04.21 03:50:02 -1.3 51 1.4 2.2 135 0.0
22.04.21 03:45:02 -1.3 51 1.8 3.6 135 0.0
22.04.21 03:40:02 -1.5 50 1.8 3.6 135 0.0
22.04.21 03:35:02 -1.3 50 1.4 2.2 135 0.0
22.04.21 03:30:02 -0.9 48 1.8 2.5 112.5 0.0
22.04.21 03:25:02 -0.9 49 1.8 2.5 112.5 0.0
22.04.21 03:20:01 -0.4 48 1.4 3.2 112.5 0.0
22.04.21 03:15:01 0.0 48 2.2 2.9 112.5 0.0
22.04.21 03:10:01 -0.1 48 2.2 2.9 112.5
22.04.21 03:05:02 1.1 2.5 112.5 0.0
22.04.21 03:00:02 0.1 47 0.4 1.8 112.5 0.0
22.04.21 02:55:02 0.0 47 0.4 1.8 112.5 0.0
22.04.21 02:50:00 0.0 47 0.4 1.8 90 0.0
22.04.21 02:45:00 0.0 47 0.4 0.0 112.5 0.0
22.04.21 02:40:00 0.2 46 0.4 0.0 112.5 0.0
22.04.21 02:35:01 0.4 46 0.7 1.8 180
22.04.21 02:30:01 0.8 45 0.0 1.8 112.5 0.0
22.04.21 02:25:01 0.8 44 0.0 1.8 112.5 0.0
22.04.21 02:20:01 1.0 44 0.0 0.0 112.5 0.0
22.04.21 02:15:01 1.2 44 0.0 0.0 90 0.0
22.04.21 02:10:01 1.1 43 0.0 0.0 90 0.0
22.04.21 02:05:00 1.3 43 0.0 0.0 90 0.0
22.04.21 02:00:00 1.4 43 0.0 0.0 112.5 0.0
22.04.21 01:55:00 1.6 42 0.0 0.0 112.5
22.04.21 01:50:01 2.0 41 0.0 0.0 112.5 0.0
22.04.21 01:45:01 2.5 41 0.0 0.0 45 0.0
22.04.21 01:40:00 2.5 41 0.0 0.0 45 0.0
22.04.21 01:35:01 2.6 40 0.0 0.0 67.5 0.0
22.04.21 01:30:01 2.6 40 0.0 0.0 22.5 0.0
22.04.21 01:25:00 2.6 39 0.0 0.0 22.5 0.0
22.04.21 01:20:01 2.8 39 0.0 0.0 315 0.0
22.04.21 01:15:01 2.8 38 0.0 0.0 0 0.0
22.04.21 01:10:01 2.8 38 0.0 0.0 0 0.0
22.04.21 01:05:00 2.8 39 0.0 0.0 22.5 0.0
22.04.21 01:00:00 3.2 38 0.0 0.0 202.5 0.0
22.04.21 00:55:00 2.9 37 0.0 0.0 202.5
22.04.21 00:50:01 3.2 36 0.0 0.0 270 0.0
22.04.21 00:45:01 3.4 36 0.0 0.0 112.5
22.04.21 00:40:00 3.7 36 0.0 0.0 112.5 0.0
22.04.21 00:35:01 3.7 33 0.0 0.0 45 0.0
22.04.21 00:30:01 4.2 33 0.0 0.0 0 0.0
22.04.21 00:25:01 4.2 33 0.0 0.0 0 0.0
22.04.21 00:20:01 4.2 33 0.0 0.0 45 0.0
22.04.21 00:15:00 4.5 32 0.0 0.0 45 0.0
22.04.21 00:10:00 4.6 32 0.0 0.0 45 0.0
22.04.21 00:05:00 4.8 32 0.0
22.04.21 00:00:00 5.0 30 0.0
21.04.21 23:55:00 5.2 31 0.0
21.04.21 23:50:01 4.9 33 0.0
21.04.21 23:45:01 5.0 35 0.0
21.04.21 23:40:01 5.0 35 0.0
21.04.21 23:35:01 5.0 36 0.0
21.04.21 23:30:01 5.2 35 0.0
21.04.21 23:25:00 5.4 36 0.0
21.04.21 23:20:01 5.5 36 0.0
21.04.21 23:15:01 5.6 38 0.0
21.04.21 23:10:01 5.2 37 0.0
21.04.21 23:05:01 5.2 36 0.0
21.04.21 23:00:01 5.8 36 0.0
21.04.21 22:55:01 6.3 36
21.04.21 22:50:01 6.3 35 0.0
21.04.21 22:45:01 6.6 34 0.0
21.04.21 22:40:01 7.3 33 0.0
21.04.21 22:35:01 7.3 33 0.0
21.04.21 22:30:01 7.5 34 0.0
21.04.21 22:25:01 7.2 35 0.0
21.04.21 22:20:00 6.7 37 0.0
21.04.21 22:15:00 6.7 37 0.0
21.04.21 22:10:00 6.8 37 0.0
21.04.21 22:05:00 7.2 35 0.0
21.04.21 22:00:00 7.2 35 0.0
21.04.21 21:55:00 7.3 35
21.04.21 21:50:01 7.6 34 0.0
21.04.21 21:45:01 7.7 33 0.0
21.04.21 21:40:01 8.1 33 0.0
21.04.21 21:35:01 8.3 32 0.0
21.04.21 21:30:01 8.6 32 0.0
21.04.21 21:25:01 8.8 31 0.0
21.04.21 21:20:01 9.1 29 0.0
21.04.21 21:15:01 9.5 28 0.0
21.04.21 21:10:01 9.6 28 0.0
21.04.21 21:05:01 9.7 29 0.0
21.04.21 21:00:01 9.7 29 0.0
21.04.21 20:55:01 9.6 30
21.04.21 20:50:01 9.8 29 0.0
21.04.21 20:45:01 9.8 29 0.0
21.04.21 20:40:01 9.9 29 0.0
21.04.21 20:35:01 10.0 28 0.0
21.04.21 20:30:01 10.5 26 0.0
21.04.21 20:25:01 10.7 25 0.0
21.04.21 20:20:01 10.8 24 0.0
21.04.21 20:15:01 10.9 25 0.0
21.04.21 20:10:01 11.0 24
21.04.21 20:05:01 11.1 25 0.0
21.04.21 20:00:01 11.1 26 0.0
21.04.21 19:55:01 11.2 25
21.04.21 19:50:02 11.3 24 0.0
21.04.21 19:45:02 11.5 22 0.0
21.04.21 19:40:01 11.9 20 0.0
21.04.21 19:35:01 12.2 20 0.0
21.04.21 19:30:01 12.2 20 0.0
21.04.21 19:25:01 12.8 20
21.04.21 19:20:02 13.3 20 0.0
21.04.21 19:15:02 13.6 20 0.0
21.04.21 19:10:01 14.8 20 0.0
21.04.21 19:05:01 14.8 20 0.0
21.04.21 19:00:01 14.9 20 0.0
21.04.21 18:55:01 15.4 20 0.0
21.04.21 18:50:01 15.1 20 0.0
21.04.21 18:45:01 15.4 20 0.0
21.04.21 18:40:01 15.8 20 0.0
21.04.21 18:35:01 15.1 20 0.0
21.04.21 18:30:01 14.8 20 0.0
21.04.21 18:25:01 14.6 20
21.04.21 18:20:01 14.7 20 0.0
21.04.21 18:15:01 15.4 20 0.0
21.04.21 18:10:01 15.8 20 0.0
21.04.21 18:05:00 16.9 20 0.0
21.04.21 18:00:00 17.8 20 0.0
21.04.21 17:55:00 18.6 20 0.0
21.04.21 17:50:01 0.0
21.04.21 17:45:01 0.0
21.04.21 17:40:01 0.0
21.04.21 17:35:01 0.0
21.04.21 17:30:01 0.0
21.04.21 17:25:01 0.0
21.04.21 17:20:00 18.4 20 0.0
21.04.21 17:15:00 16.9 20 0.0
21.04.21 17:10:00 18.0 20
21.04.21 17:05:01 18.1 20 0.0
21.04.21 17:00:01 18.6 20 0.0
21.04.21 16:55:01 18.8 20
21.04.21 16:50:01 18.0 20 0.0
21.04.21 16:45:01 18.7 20 0.0
21.04.21 16:40:01 16.9 20 0.0
21.04.21 16:35:01 16.6 20 0.0
21.04.21 16:30:01 17.3 20 0.0
21.04.21 16:25:01 17.0 20 0.0
21.04.21 16:20:01 17.0 20 0.0
21.04.21 16:15:01 17.4 20 0.0
21.04.21 16:10:01 18.5 20 0.0
21.04.21 16:05:01 17.8 20 0.0
21.04.21 16:00:01 16.9 20 0.0
21.04.21 15:55:01 16.6 20 0.0
21.04.21 15:50:01 17.8 20 0.0
21.04.21 15:45:01 18.4 20 0.0
21.04.21 15:40:01 17.2 20 0.0
21.04.21 15:35:01 18.7 20 0.0
21.04.21 15:30:01 22.1 20 1.8 1.8 315 0.0
21.04.21 15:25:01 23.6 20 1.8 1.8 315 0.0
21.04.21 15:20:01 23.1 20 1.8 1.8 315 0.0
21.04.21 15:15:01 21.0 20 1.8 1.8 315 0.0
21.04.21 15:10:01 21.0 20 1.8 1.8 315
21.04.21 15:05:01 18.9 20 2.2 2.9 135 0.0
21.04.21 15:00:01 16.7 20 2.9 4.0 22.5 0.0
21.04.21 14:55:01 16.4 20 2.9 4.0 22.5 0.0
Index
© 2002-2021 Thomas Dreßler
Alle Rechte vorbehalten
letzte Scriptänderung 21.03.2021